Miscellaneous Local Product
Issued by NWS North Platte, NE

Home | Current Version | Previous Version | Graphics & Text | Print | Product List | Glossary On
Versions: 1 2 3 4 5 6 7 8 9 10 11 12 13 14 15 16 17 18 19 20 21 22 23 24 25 26 27 28 29 30 31 32 33 34 35 36 37 38 39 40 41 42 43 44 45 46 47 48 49 50
000
AXUS43 KLBF 272310
MISLBF


WESTERN AND NORTH CENTRAL NEBRASKA HOURLY WEATHER ROUNDUP
NATIONAL WEATHER SERVICE NORTH PLATTE NE
600 PM CDT MON JUL 27 2015

***STATIONS NOT REPORTING VARIABLES SUCH AS SKY/WEATHER OR
PRESSURE ARE PROVIDED BY THE NEBRASKA DEPARTMENT OF
ROADS...RAWS...AND APRS NETWORKS...AND ARE NOT UNDER
NATIONAL WEATHER SERVICE QUALITY CONTROL***

...OBSERVATIONS IN AND NEAR THE EASTERN PANHANDLE OF NEBRASKA...

CITY           SKY/WX    TMP DP  RH WIND       PRES   REMARKS
PINE RIDGE     SUNNY     93  61  34 SE20G29   29.66F HX  93
CHADRON        SUNNY     94  62  34 S24G31    29.63F HX  94
ALLIANCE       MOSUNNY   91  65  41 SE17G26   29.73F HX  93
SIDNEY         PTSUNNY   96  50  20 S16G24    29.77F HX  93
BIG SPRINGS      N/A     91  70  49 S17         N/A  HX  96
$$

...OBSERVATIONS IN NORTH CENTRAL NEBRASKA...

CITY           SKY/WX    TMP DP  RH WIND       PRES   REMARKS
VALENTINE      SUNNY     92  66  42 S21G26    29.72F HX  94
THEDFORD       MOSUNNY   92  68  45 S25G32    29.76F HX  95
AINSWORTH      MOSUNNY   91  68  46 S20G26    29.75F HX  94
O`NEILL        SUNNY     89  70  52 S22       29.77F HX  94
ORD            MOSUNNY   89  71  55 SE22G30   29.76F HX  95
BROKEN BOW     MOSUNNY   90  72  55 S15G31    29.77F HX  97
SPRINGVIEW       N/A     90  72  55 S8G23       N/A  HX  97
CHAMBERS         N/A     91  73  55 S3G13       N/A  HX  99
EWING            N/A     86  76  71 S8G15       N/A  HX  96
$$

...OBSERVATIONS IN SOUTHWEST NEBRASKA AND FAR NORTHEAST COLORADO...

CITY           SKY/WX    TMP DP  RH WIND       PRES   REMARKS
WRAY           FAIR      96  60  29 S18G26    29.76F HX  95
HOLYOKE        FAIR      95  63  34 S20G30    29.76S HX  96
IMPERIAL       PTSUNNY   92  67  43 S21G29    29.76F HX  95
OGALLALA       PTSUNNY   92  69  46 S20G25    29.74F HX  96
NORTH PLATTE   MOSUNNY   91  69  48 S20G30    29.75F HX  96
MCCOOK         MOSUNNY   93  69  45 S17G28    29.75F HX  98
LEXINGTON      SUNNY     92  73  53 SE20      29.77F HX 100
PAXTON           N/A     89  73  59 SE12        N/A  HX  97
BRADY            N/A     90  74  58 CALM        N/A  HX  98
CALLAWAY         N/A     87  78  73 S17         N/A  HX  99
$$

...NORTH PLATTE AREA...

CITY           SKY/WX    TMP DP  RH WIND       PRES   REMARKS
AIRPORT        MOSUNNY   91  69  48 S20G30    29.75F HX  96
DOWNTOWN         N/A     91  70  50 S7G17       N/A  HX  96
HILLCREST        N/A     89  69  52 S16G26      N/A  HX  93
$$

...SOME WEATHER OBSERVATIONS FROM AROUND THE REGION...

CITY           SKY/WX    TMP DP  RH WIND       PRES   REMARKS
DENVER         PTSUNNY   95  41  15 S15       29.83F HX  91
LARAMIE        MOSUNNY   83  37  19 SW25G38   29.98S
CHEYENNE       MOSUNNY   89  46  22 S13G20    29.88F
SCOTTSBLUFF    MOSUNNY   94  56  27 S16       29.71F HX  92
RAPID CITY     MOSUNNY   86  65  49 SE10      29.59F
PIERRE         SUNNY     94  66  39 SE29G38   29.62F HX  97
WINNER         FAIR      93  66  40 SE18G29   29.69F HX  96
SIOUX FALLS    MOSUNNY   85  71  63 S17       29.80F HX  90
OMAHA          PTSUNNY   87  77  72 SE16      29.85R HX  99
GRAND ISLAND   SUNNY     88  72  58 S17G24    29.81F HX  94
KANSAS CITY    PTSUNNY   90  79  70 S9        29.87F HX 106
WICHITA        MOSUNNY   97  60  29 S18       29.84F HX  97
HAYS           SUNNY     93  66  40 S25       29.80S HX  96
LIBERAL        SUNNY     97  64  34 S18G28    29.83S HX  99
GOODLAND       MOSUNNY   92  67  43 S23G31    29.81F HX  95
$$



USA.gov is the U.S. government's official web portal to all federal, state and local government web resources and services.